TimeEST,TemperatureF,Dew PointF,Humidity,Sea Level PressureIn,VisibilityMPH,Wind Direction,Wind SpeedMPH,Gust SpeedMPH,PrecipitationIn,Events,Conditions,WindDirDegrees,DateUTC
12:15 AM,53.6,51.8,94,30.03,10.0,West,3.5,-,N/A,,Clear,280,2014-01-15 05:15:00
12:35 AM,51.8,51.8,100,30.02,10.0,WNW,4.6,-,N/A,,Clear,290,2014-01-15 05:35:00
12:55 AM,53.6,51.8,94,30.01,10.0,WNW,4.6,-,N/A,,Clear,300,2014-01-15 05:55:00
1:15 AM,51.8,51.8,100,30.01,10.0,WNW,3.5,-,N/A,,Clear,300,2014-01-15 06:15:00
1:35 AM,51.8,51.8,100,30.01,10.0,Calm,Calm,-,N/A,,Clear,0,2014-01-15 06:35:00
1:55 AM,51.8,51.8,100,30.01,10.0,WNW,4.6,-,N/A,,Clear,300,2014-01-15 06:55:00
2:15 AM,51.8,51.8,100,30.00,10.0,NW,4.6,-,N/A,,Clear,310,2014-01-15 07:15:00
2:35 AM,51.8,50.0,94,30.00,10.0,Calm,Calm,-,N/A,,Clear,0,2014-01-15 07:35:00
2:55 AM,53.6,50.0,88,30.01,10.0,Calm,Calm,-,N/A,,Clear,0,2014-01-15 07:55:00
3:15 AM,51.8,50.0,94,30.01,10.0,Calm,Calm,-,N/A,,Clear,0,2014-01-15 08:15:00
3:35 AM,50.0,50.0,100,30.00,10.0,Calm,Calm,-,N/A,,Clear,0,2014-01-15 08:35:00
3:55 AM,50.0,48.2,94,30.01,10.0,Calm,Calm,-,N/A,,Clear,0,2014-01-15 08:55:00
4:15 AM,50.0,48.2,94,30.01,1.8,Calm,Calm,-,N/A,,Mist,0,2014-01-15 09:15:00
4:35 AM,50.0,50.0,100,30.01,10.0,Calm,Calm,-,N/A,,Clear,0,2014-01-15 09:35:00
4:55 AM,48.2,48.2,100,30.00,10.0,WNW,4.6,-,N/A,,Clear,290,2014-01-15 09:55:00
5:15 AM,48.2,48.2,100,30.00,10.0,Calm,Calm,-,N/A,,Clear,0,2014-01-15 10:15:00
5:35 AM,50.0,50.0,100,30.00,10.0,Calm,Calm,-,N/A,,Clear,0,2014-01-15 10:35:00
5:50 AM,48.2,48.2,100,30.00,10.0,Calm,Calm,-,N/A,,Partly Cloudy,0,2014-01-15 10:50:00
6:45 AM,46.4,46.4,100,30.01,10.0,Calm,Calm,-,N/A,,Scattered Clouds,0,2014-01-15 11:45:00
7:57 AM,48.2,48.2,100,30.04,10.0,Calm,Calm,-,N/A,,Partly Cloudy,0,2014-01-15 12:57:00
8:58 AM,53.6,50.0,88,30.06,12.0,NNW,4.6,-,N/A,,Mostly Cloudy,330,2014-01-15 13:58:00
9:52 AM,55.4,48.2,77,30.09,15.0,NW,3.5,-,N/A,,Mostly Cloudy,320,2014-01-15 14:52:00
10:50 AM,57.2,46.4,67,30.07,10.0,NNW,3.5,-,N/A,,Scattered Clouds,330,2014-01-15 15:50:00
11:50 AM,60.8,44.6,55,30.05,10.0,NW,9.2,-,N/A,,Mostly Cloudy,310,2014-01-15 16:50:00
12:50 PM,62.6,42.8,48,30.01,12.0,WNW,8.1,-,N/A,,Overcast,300,2014-01-15 17:50:00
1:56 PM,62.6,39.2,42,29.99,15.0,West,10.4,-,N/A,,Overcast,270,2014-01-15 18:56:00
2:54 PM,64.4,39.2,40,29.96,15.0,NW,11.5,-,N/A,,Mostly Cloudy,310,2014-01-15 19:54:00
3:50 PM,64.4,37.4,37,29.98,15.0,NW,11.5,-,N/A,,Mostly Cloudy,310,2014-01-15 20:50:00
4:55 PM,60.8,41.0,48,29.98,15.0,WNW,6.9,-,N/A,,Overcast,300,2014-01-15 21:55:00
5:50 PM,59.0,42.8,55,29.98,12.0,West,3.5,-,N/A,,Overcast,270,2014-01-15 22:50:00
6:50 PM,55.4,46.4,72,29.99,12.0,Calm,Calm,-,N/A,,Overcast,0,2014-01-15 23:50:00
7:50 PM,55.4,46.4,72,29.98,10.0,Calm,Calm,-,N/A,,Mostly Cloudy,0,2014-01-16 00:50:00
8:50 PM,51.8,46.4,82,30.00,10.0,SSW,3.5,-,N/A,,Mostly Cloudy,200,2014-01-16 01:50:00
9:50 PM,53.6,46.4,77,30.00,10.0,Calm,Calm,-,N/A,,Overcast,0,2014-01-16 02:50:00
9:55 PM,51.8,46.4,82,30.00,10.0,South,4.6,-,N/A,,Clear,170,2014-01-16 02:55:00
10:15 PM,51.8,46.4,82,29.98,10.0,Calm,Calm,-,N/A,,Clear,0,2014-01-16 03:15:00
10:35 PM,53.6,46.4,77,29.97,10.0,Calm,Calm,-,N/A,,Clear,0,2014-01-16 03:35:00
10:55 PM,51.8,46.4,82,29.98,10.0,Calm,Calm,-,N/A,,Clear,0,2014-01-16 03:55:00
11:15 PM,53.6,46.4,77,29.98,10.0,Calm,Calm,-,N/A,,Mostly Cloudy,0,2014-01-16 04:15:00
11:35 PM,53.6,48.2,82,30.00,7.0,WNW,9.2,-,N/A,Rain,Light Rain,290,2014-01-16 04:35:00
11:55 PM,53.6,50.0,88,30.00,5.0,NW,6.9,-,N/A,Rain,Rain,320,2014-01-16 04:55:00